AirNav   Everest Fuels
 
 1285 users online  

F56 Arledge Field Airport
Stamford, Texas, USA

GOING TO STAMFORD?


FAA INFORMATION EFFECTIVE 18 JUNE 2020

Location

FAA Identifier: F56
Lat/Long: 32-54-37.7000N 099-44-03.0000W
32-54.628333N 099-44.050000W
32.9104722,-99.7341667
(estimated)
Elevation: 1560.8 ft. / 475.7 m (surveyed)
Variation: 06E (2010)
From city: 4 miles SE of STAMFORD, TX
Time zone: UTC -5 (UTC -6 during Standard Time)
Zip code: 79503

Airport Operations

Airport use: Open to the public
Activation date: 09/1941
Control tower: no
ARTCC: FORT WORTH CENTER
FSS: FORT WORTH FLIGHT SERVICE STATION
NOTAMs facility: FTW (NOTAM-D service available)
Attendance: UNATNDD
Wind indicator: lighted
Segmented circle: yes
Lights: ACTVT MIRL RY 17/35 - CTAF.
Beacon: white-green (lighted land airport)
Operates sunset to sunrise.

Airport Communications

CTAF/UNICOM: 122.8
ABILENE APPROACH: 127.2
ABILENE DEPARTURE: 127.2

Nearby radio navigation aids

VOR radial/distance  VOR name  Freq  Var
ABIr004/26.6ABILENE VORTAC113.7010E

Airport Services

Fuel available: 100LL
Parking: hangars and tiedowns
Airframe service: MAJOR
Powerplant service: MAJOR
Bottled oxygen: NONE
Bulk oxygen: NONE

Runway Information

Runway 17/35

Dimensions: 3707 x 60 ft. / 1130 x 18 m
Surface: asphalt, in good condition
Weight bearing capacity: 
Single wheel: 4.0
Runway edge lights: medium intensity
RUNWAY 17  RUNWAY 35
Latitude: 32-54.854227N32-54.243023N
Longitude: 099-44.157137W099-44.162220W
Elevation: 1560.6 ft.1553.8 ft.
Traffic pattern: leftleft
Runway heading: 174 magnetic, 180 true354 magnetic, 000 true
Markings: nonprecision, in good conditionnonprecision, in good condition
Touchdown point: yes, no lightsyes, no lights
Obstructions: 15 ft. road, 900 ft. from runway, 46:1 slope to clear
10 FT ROAD 60 FT EAST OF RY CENTERLINE AT THLD.
none

Runway 8/26

Dimensions: 2211 x 50 ft. / 674 x 15 m
Surface: turf, in fair condition
RUNWAY 8  RUNWAY 26
Latitude: 32-54.747442N32-54.741275N
Longitude: 099-44.163825W099-43.731750W
Elevation: 1560.0 ft.1554.9 ft.
Traffic pattern: leftleft
Runway heading: 085 magnetic, 091 true265 magnetic, 271 true
Touchdown point: yes, no lightsyes, no lights
Obstructions: 10 ft. road, 50 ft. left of centerlinenone

Runway 13/31

Dimensions: 1702 x 50 ft. / 519 x 15 m
Surface: turf/gravel, in fair condition
RUNWAY 13  RUNWAY 31
Latitude: 32-54.751265N32-54.550128N
Longitude: 099-44.057410W099-43.825367W
Elevation: 1558.0 ft.1552.5 ft.
Traffic pattern: leftleft
Runway heading: 130 magnetic, 136 true310 magnetic, 316 true
Touchdown point: yes, no lightsyes, no lights
Obstructions: 10 ft. road10 ft. road

Airport Ownership and Management from official FAA records

Ownership: Publicly-owned
Owner: CITY OF STAMFORD
PO BOX 191
STAMFORD, TX 79553
Phone 325-773-2591
Manager: ALAN PLUMLEE
PO BOX 191
STAMFORD, TX 79553
Phone 325-773-2591
CITY MANAGER

Airport Operational Statistics

Aircraft based on the field: 13
Single engine airplanes: 11
Multi engine airplanes: 2
    
Aircraft operations: avg 94/week *
67% local general aviation
33% transient general aviation
* for 12-month period ending 18 April 2018

Additional Remarks

FARM EQUIPMENT INVOF AIRPORT.
FOR CD CTC FORT WORTH ARTCC AT 817-858-7584.

Instrument Procedures

NOTE: All procedures below are presented as PDF files. If you need a reader for these files, you should download the free Adobe Reader.

NOT FOR NAVIGATION. Please procure official charts for flight.
FAA instrument procedures published for use from 18 June 2020 at 0901Z to 16 July 2020 at 0900Z.

 
IAPs - Instrument Approach Procedures
RNAV (GPS) RWY 17   download (182KB)
RNAV (GPS) RWY 35   download (198KB)
NOTE: Special Take-Off Minimums/Departure Procedures apply   download (113KB)

Other nearby airports with instrument procedures:

15F - Haskell Municipal Airport (17 nm N)
T23 - Albany Municipal Airport (26 nm SE)
KABI - Abilene Regional Airport (30 nm S)
KDYS - Dyess Air Force Base (30 nm S)
KBKD - Stephens County Airport (44 nm E)
 
Loc | Ops | Rwys | IFR | FBO | Links
Com | Nav | Svcs | Stats | Notes
Area around F56 (Arledge Field Airport)
 
Road maps at: MapQuest Bing Google
 
Aerial photo
WARNING: Photo may not be current or correct
Aerial photo of F56 (Arledge Field Airport)
Photo by John McDonald
Taken in 2007

Do you have a better or more recent aerial photo of Arledge Field Airport that you would like to share? If so, please send us your photo.

 
Sectional chart

 
Airport distance calculator
Flying to Arledge Field Airport? Find the distance to fly.

From to F56

Sunrise and sunset
Times for 02-Jul-2020
 Local
(UTC-5)
 Zulu
(UTC)
Morning civil twilight06:0711:07
Sunrise06:3611:36
Sunset20:5001:50
Evening civil twilight21:1902:19

Current date and time
Zulu (UTC)  02-Jul-2020 19:45:10
Local (UTC-5)  02-Jul-2020 14:45:10
 
METAR
KABI 
30nm S 
021852Z 15010KT 10SM FEW120 29/22 A3002 RMK AO2 SLP136 T02940222
KDYS 
30nm S 
021856Z AUTO 14010KT 10SM FEW049 SCT090 SCT110 BKN150 OVC190 31/20 A3000 RMK AO2 SLP109 T03090199
KBKD 
44nm E 
021935Z AUTO 21006G15KT 5SM HZ CLR 35/20 A2997 RMK AO2 T03450200
KSWW 
46nm SW 
021935Z AUTO 13010G17KT 10SM CLR 33/19 A3002 RMK AO2 T03290187
KGZN 
49nm SE 
021920Z AUTO 18009KT 10SM CLR 32/24 A3000 RMK AO2
TAF
KABI 
30nm S 
021729Z 0218/0318 17010KT P6SM FEW120 SCT250 FM030100 16005KT P6SM BKN250
KDYS 
30nm S 
021600Z 0216/0322 17012KT 9999 SCT130 QNH2989INS BECMG 0219/0220 17012KT 9999 SCT030 BKN130 QNH2989INS BECMG 0301/0302 14006KT 9999 BKN150 QNH2992INS BECMG 0307/0308 19006KT 9999 SCT150 QNH2995INS BECMG 0314/0315 19012KT 9999 SCT150 QNH2996INS BECMG 0319/0320 15009KT 9999 SCT150 QNH2992INS TX35/0221Z TN23/0311Z
NOTAMs
Click for the latest NOTAMs
NOTAMs are issued by the DoD/FAA and will open in a separate window not controlled by AirNav.

 

 
 

FBO, Fuel Providers, and Aircraft Ground Support

  
 Business Name 
 
 Contact 
 
 Services / Description 
 
Fuel Prices
 
Comments
  
City of Stamford 325-370-7986
no information available

If you are affiliated with City of Stamford and would like to show here your services, contact info, web link, logo, and more, click here
100LL
SS $4.30 
 Updated 23-Dec-2019
 
   write
SS=Self service
Update Fuel Prices
 

Would you like to see your business listed on this page?

 If your business provides an interesting product or service to pilots, flight crews, aircraft, or users of the Arledge Field Airport, you should consider listing it here.  To start the listing process, click on the button below
 
Add a business
 

Other Pages about Arledge Field Airport

www.sunsetpass.com/...
 
Update a link
 
Copyright © AirNav, LLC. All rights reserved. Privacy Policy  Contact